Wind_Speed
25 25 25 25 25 26 26 26 25 26 27 26 26 25 24 24 23 23 23 24 24 24 25 25 27 27 26 24 24 25 26 27 27 26 24 24 25 26 26 25 24 24 24 23 22 21 21 21 20 18 17 17 16 15 14 14 15 15 16 17 17 17 17 17 17 17 16 16 16
24 24 24 24 24 25 26 25 25 26 26 26 25 24 24 23 23 23 23 24 24 25 25 26 27 26 24 23 23 24 26 28 28 27 25 25 26 26 26 24 24 24 25 24 23 22 22 21 20 18 17 16 15 15 15 15 15 16 16 17 17 18 18 17 17 17 17 17 17
24 24 24 25 25 25 25 24 25 26 26 25 24 23 23 23 23 23 24 24 24 24 26 27 26 24 23 23 23 24 25 27 28 27 26 26 26 26 25 24 25 25 25 24 23 22 22 20 19 18 16 15 15 15 15 15 16 16 16 17 18 18 18 17 17 17 17 17 17
24 24 24 24 25 25 25 24 24 25 25 25 24 23 23 24 22 22 23 24 22 22 24 25 25 24 23 23 22 23 25 26 27 26 26 26 27 26 25 26 26 26 25 24 23 22 21 19 18 17 16 15 15 15 15 16 16 16 17 17 18 17 17 17 17 17 18 18 17
24 24 24 24 24 24 24 24 23 23 23 23 23 23 23 23 22 22 22 22 21 21 23 24 24 23 23 22 21 21 23 25 26 26 27 27 27 27 26 26 26 25 25 24 23 22 20 18 17 16 15 15 15 15 15 16 16 16 17 17 17 17 17 17 17 17 17 17 17
23 23 24 24 23 22 22 23 23 22 22 23 24 23 22 23 23 22 22 21 21 21 22 23 23 23 22 21 19 19 21 23 25 26 27 28 28 27 26 25 25 25 24 23 22 21 19 18 17 16 15 15 15 15 15 15 16 16 16 16 16 16 16 16 16 16 16 16 16
22 23 23 23 21 21 21 22 21 21 21 22 24 24 23 23 24 23 22 21 20 20 21 23 23 22 21 18 17 17 19 21 24 26 27 28 28 27 25 24 25 25 24 23 22 20 19 18 17 16 16 16 16 16 16 15 15 16 16 16 16 15 15 15 15 15 16 16 16
21 22 22 22 21 21 21 20 20 20 21 22 23 24 24 24 23 23 21 20 19 21 22 22 21 20 18 17 16 17 19 21 23 25 26 26 26 25 24 24 25 25 24 23 21 20 19 18 17 16 16 16 16 16 16 16 15 15 15 15 15 15 15 15 15 15 16 16 16
20 20 21 21 21 21 21 20 20 20 21 21 23 24 24 23 21 20 20 20 20 22 22 21 19 17 16 16 17 18 19 20 22 23 24 24 24 23 24 25 25 25 24 22 21 20 19 18 17 16 16 16 16 16 16 16 16 16 15 15 15 15 15 15 16 16 16 17 17
19 19 19 20 21 21 20 20 20 20 20 20 22 24 24 23 21 21 21 22 22 22 21 19 17 16 15 16 17 19 20 20 20 21 22 22 22 23 25 26 26 25 24 22 21 20 19 18 17 17 16 16 16 16 16 17 17 17 16 16 16 16 16 16 17 17 17 17 17
19 19 19 19 20 20 19 20 20 20 20 20 21 23 23 22 22 21 21 22 22 21 20 18 16 15 15 17 18 18 19 19 19 20 20 21 23 25 26 26 26 25 23 22 21 20 19 18 17 17 17 17 17 17 17 18 18 18 18 17 17 17 17 17 17 17 17 17 17
20 19 18 18 19 19 19 19 20 20 20 21 21 21 21 21 21 20 20 19 20 20 19 18 16 15 16 17 17 17 17 18 19 20 22 23 25 26 27 26 25 24 23 22 21 20 19 18 18 18 18 18 18 19 19 19 19 19 19 18 18 17 17 17 17 17 17 17 17
19 19 18 18 20 20 20 19 20 20 20 20 20 19 19 19 19 19 18 18 18 19 19 18 16 16 17 17 17 17 18 19 21 22 24 26 27 28 27 26 25 24 23 22 21 20 19 19 19 19 19 19 20 20 20 20 20 19 19 19 18 18 17 17 17 17 17 17 16
17 18 18 18 19 20 20 19 19 19 19 18 18 18 18 18 19 18 18 18 19 19 19 17 17 17 17 17 17 18 20 21 22 24 25 27 28 28 27 27 25 24 23 22 21 20 19 19 19 19 20 20 20 21 21 21 20 20 19 19 18 18 17 17 17 17 17 16 16
17 18 18 17 17 18 19 19 18 18 17 17 17 17 18 18 18 18 17 18 19 19 19 18 18 18 18 17 19 20 20 21 22 24 25 26 27 27 27 26 26 25 24 22 21 19 19 19 19 20 20 21 21 21 21 21 20 20 19 19 18 17 16 16 16 16 16 15 15
17 19 19 18 16 16 18 18 17 16 16 16 16 17 18 18 17 17 17 19 20 19 19 19 19 18 18 19 20 20 20 21 22 23 24 26 26 27 27 26 26 25 23 22 20 20 19 19 20 20 21 21 21 21 21 21 20 19 19 18 18 17 16 16 16 16 16 15 14
16 18 19 18 16 16 16 16 15 15 15 16 17 17 17 16 15 16 18 20 20 20 20 20 19 19 20 20 21 21 21 21 22 23 24 25 26 26 26 26 25 24 23 21 21 20 20 20 21 21 21 21 22 21 21 21 20 19 19 18 17 17 16 17 17 16 16 15 14
11 13 15 16 15 15 15 15 14 14 15 16 17 16 14 14 15 17 19 20 21 21 21 20 19 20 21 22 22 21 21 21 22 23 24 25 25 26 26 25 24 23 22 21 21 20 21 21 21 22 22 22 22 22 21 21 20 19 18 18 17 17 17 17 17 16 15 15 14
9 10 11 12 13 14 15 15 14 14 15 15 14 13 13 14 17 19 20 21 22 21 20 19 21 22 23 22 22 22 22 22 22 23 24 25 25 25 25 25 24 23 22 21 21 21 21 21 22 22 22 22 22 21 21 20 19 19 18 17 17 17 17 17 17 16 15 14 14
12 11 11 11 12 14 15 15 14 14 13 12 11 12 14 16 18 20 21 22 22 20 20 21 23 24 23 23 22 22 22 23 23 24 24 25 25 25 25 24 23 23 22 22 21 21 21 22 22 22 22 22 21 20 20 19 19 18 17 17 17 17 17 17 16 15 14 13 13
14 14 13 13 12 13 14 14 14 12 11 10 11 12 15 18 20 21 22 22 21 20 21 24 25 24 24 23 22 22 22 23 23 24 24 24 24 24 24 23 23 22 22 21 21 21 21 21 21 21 21 21 20 19 19 19 18 18 18 18 18 18 17 16 15 14 13 12 13
15 15 15 14 13 14 14 14 13 11 10 11 12 15 17 19 21 21 21 21 21 23 24 25 25 24 23 22 22 22 22 22 23 23 23 23 23 23 22 22 22 21 21 21 21 21 21 21 21 20 20 19 19 18 18 18 18 19 19 19 18 16 15 15 13 12 11 12 13
15 15 15 15 15 15 14 13 11 10 10 13 15 17 18 19 19 20 22 23 25 26 26 25 24 23 22 21 21 21 21 22 21 21 21 21 21 21 21 20 20 20 20 20 20 20 20 20 19 19 19 19 18 18 18 19 19 19 18 17 16 14 13 11 10 9 10 12 13
14 14 15 15 15 14 13 12 10 11 12 15 17 17 17 18 21 24 26 27 27 26 25 24 23 22 21 20 20 20 20 21 20 20 20 20 20 20 19 19 19 19 19 19 19 19 19 19 19 19 19 19 18 18 19 19 18 17 16 15 14 13 11 10 9 10 11 11 11
14 14 15 15 14 13 11 11 11 13 15 16 16 17 20 24 27 28 28 28 27 26 25 24 23 21 20 20 20 20 20 20 20 20 20 20 19 19 19 18 18 18 18 18 19 19 19 18 18 18 19 19 19 19 18 16 15 15 15 14 14 13 12 12 11 11 11 11 11
15 15 15 14 13 11 11 12 15 16 17 17 19 23 27 29 30 29 28 27 26 25 24 23 22 21 21 20 20 20 20 20 20 20 20 20 19 19 19 18 18 18 18 18 19 19 19 18 18 17 18 18 18 17 16 15 14 15 15 15 14 14 13 12 12 11 10 9 9
16 16 15 14 12 11 13 15 17 18 19 21 26 29 31 30 29 28 27 26 25 24 23 23 22 22 22 21 21 21 21 21 20 20 20 20 20 19 19 19 18 18 18 18 19 19 19 18 17 17 17 17 18 17 16 16 15 15 15 15 14 13 12 11 10 9 8 7 6
16 16 14 13 12 13 14 16 17 20 24 28 31 31 30 28 28 27 27 26 25 24 24 23 23 23 22 22 21 21 21 21 20 20 20 20 20 20 20 19 19 19 18 19 19 19 19 18 18 18 17 18 18 18 17 16 16 15 14 13 12 11 10 9 8 7 6 5 4
15 15 13 13 14 15 16 17 21 25 29 31 31 30 28 28 27 27 26 26 25 25 24 24 23 23 23 22 22 21 21 20 20 20 19 20 21 22 22 21 20 19 19 19 20 20 19 18 18 18 18 17 16 15 14 13 12 11 10 9 9 8 7 7 6 5 5 5 5
14 13 14 15 17 18 19 23 26 28 30 29 28 28 27 27 27 26 26 25 24 24 23 23 23 23 22 22 21 21 21 21 20 19 17 16 18 22 23 22 21 18 17 17 18 18 17 16 16 16 16 14 11 9 8 7 7 7 7 7 7 6 5 5 5 5 6 6 7
15 16 17 19 20 22 25 27 27 27 27 26 26 25 25 26 26 25 25 24 23 22 22 22 22 22 21 20 19 20 20 21 20 18 15 13 15 19 22 22 20 18 15 14 15 15 15 14 14 14 12 10 8 7 6 6 6 6 6 6 5 5 5 5 6 7 7 8 8
20 21 21 22 24 26 27 27 25 24 24 24 24 24 24 24 24 24 23 22 21 21 21 21 20 20 19 18 17 17 19 20 19 17 14 13 13 15 18 19 18 17 15 14 13 13 13 13 13 13 12 11 10 9 9 8 7 7 6 6 5 5 6 6 7 7 7 7 8
24 25 25 26 28 28 27 25 24 24 24 24 24 24 24 23 23 22 21 20 20 20 20 20 19 18 18 17 17 17 17 18 17 16 15 14 13 14 15 16 16 15 14 14 13 13 13 14 14 14 14 14 13 12 11 10 9 9 8 8 7 6 6 6 6 7 7 8 8
26 27 28 30 30 30 28 27 26 26 26 25 25 24 23 22 21 20 20 20 21 21 20 19 18 17 17 17 17 17 17 17 16 16 15 14 14 14 14 15 15 14 14 13 14 15 15 16 16 15 14 14 13 12 11 11 10 10 10 9 8 7 6 6 7 7 8 8 8
25 27 29 30 31 30 29 28 28 27 26 25 24 23 22 21 20 19 19 21 22 22 21 20 18 17 17 18 18 19 18 17 16 16 15 14 14 14 14 14 14 13 13 14 15 15 15 14 13 13 12 11 11 10 10 10 9 9 9 8 7 7 7 8 8 8 8 7 7
23 25 27 28 28 28 27 27 26 26 25 23 22 21 20 19 19 19 19 21 23 23 22 20 18 17 17 18 19 19 18 17 16 15 14 13 13 13 13 13 14 14 14 14 14 13 12 11 10 10 10 10 9 8 7 7 7 7 7 7 7 8 8 8 8 7 7 6 6
23 24 25 25 25 25 24 24 24 24 23 22 21 20 19 19 19 19 20 21 22 23 21 20 18 17 17 18 18 18 17 16 14 14 13 12 12 12 13 14 15 15 15 14 12 11 10 9 9 9 9 8 7 7 6 6 6 6 7 7 8 8 8 8 7 7 6 6 5
23 23 23 23 23 22 22 22 22 21 21 20 19 19 18 18 18 18 19 19 19 19 19 18 17 17 16 16 16 16 15 14 13 12 12 12 12 12 12 13 14 14 13 12 10 9 9 8 8 8 7 7 6 6 6 6 7 7 8 8 8 8 8 7 7 7 6 5 5
20 20 21 21 20 20 19 19 19 18 18 18 17 17 16 16 16 15 15 15 15 15 15 15 15 14 14 13 13 13 13 12 12 12 12 12 12 11 11 11 12 12 11 10 9 8 7 7 7 7 7 7 7 6 7 7 7 8 8 8 8 8 8 8 7 7 6 5 5
17 17 17 17 17 17 17 17 17 16 16 16 16 16 15 15 15 14 13 13 12 12 12 13 13 13 12 12 12 12 13 13 13 12 12 12 12 11 10 9 10 10 9 8 8 8 7 7 7 7 7 7 7 7 7 7 8 8 8 8 8 8 8 8 7 7 6 5 4
14 14 13 13 13 14 15 16 16 16 16 16 16 15 15 16 15 15 14 13 12 12 12 12 13 13 13 13 13 13 14 14 13 13 12 11 11 10 9 9 9 8 8 8 8 8 8 7 7 7 7 7 7 7 8 8 8 9 9 9 9 8 8 7 7 6 6 5 4
Wind_Direction
193 193 193 194 195 196 197 197 198 199 198 197 198 199 200 201 202 204 208 211 213 213 214 214 217 220 223 223 222 220 218 217 217 218 215 209 202 198 199 200 200 197 193 188 188 188 187 187 189 192 195 199 201 204 207 210 212 214 216 217 218 219 220 221 221 222 222 222 221
195 194 194 194 195 196 197 198 199 200 199 198 198 198 200 201 202 204 207 211 214 216 216 216 219 222 224 225 224 221 219 218 218 218 215 210 204 202 202 202 200 194 189 185 185 185 186 186 188 191 195 199 202 205 208 212 214 215 217 218 219 220 221 221 222 222 222 222 222
197 196 196 195 195 195 197 198 200 200 200 198 197 197 199 201 202 205 208 211 213 217 220 222 223 225 227 228 226 223 220 219 218 218 215 210 207 206 205 203 199 192 185 182 183 184 185 186 188 192 196 200 204 208 211 214 216 217 217 218 220 221 221 221 221 221 221 221 221
198 199 198 197 196 196 197 198 200 201 201 199 198 199 200 202 202 205 209 211 212 216 221 224 225 227 229 231 229 226 222 220 219 218 215 211 209 208 207 205 197 188 181 180 182 183 185 186 189 193 198 202 207 212 215 217 217 218 218 219 220 220 220 220 220 219 219 219 219
200 201 200 199 198 198 198 199 200 201 201 199 198 199 202 203 203 205 208 210 213 217 222 225 227 230 232 234 232 228 224 222 220 219 216 212 209 209 208 205 194 184 178 179 181 183 185 187 191 195 200 205 210 214 217 218 218 217 218 218 219 219 218 217 217 216 216 215 215
200 202 201 200 198 198 199 200 202 202 202 201 198 198 201 204 204 205 206 209 212 217 223 226 229 233 236 237 233 228 224 222 220 218 216 213 211 210 208 201 189 181 178 179 181 183 186 189 193 197 202 206 210 214 215 215 215 215 216 216 216 214 213 211 211 210 210 209 210
200 203 203 201 199 199 200 201 202 203 203 204 201 199 200 204 206 206 207 209 213 219 224 229 232 234 236 234 228 223 220 219 218 217 215 213 211 209 202 190 180 178 180 180 182 184 187 191 195 199 203 206 209 210 211 211 211 211 211 210 209 207 205 203 202 202 202 203 205
199 202 203 202 201 200 201 201 201 203 205 206 204 202 202 204 207 209 209 211 214 221 228 231 233 232 230 226 222 219 218 217 215 214 212 210 207 201 190 179 176 178 180 182 183 186 190 193 197 200 204 206 207 208 207 206 205 205 203 202 200 197 195 194 194 195 196 199 203
199 201 203 204 203 201 201 202 203 204 205 206 205 205 204 205 208 210 212 213 216 223 229 231 229 225 221 218 218 218 217 214 212 210 208 205 198 187 178 175 177 179 181 183 185 189 192 195 198 201 204 205 205 205 203 201 199 197 195 193 191 189 188 189 190 193 196 200 204
198 199 201 204 203 201 200 202 203 204 205 205 206 207 208 209 210 212 213 216 219 223 227 227 222 216 212 214 217 217 214 211 208 205 202 196 187 178 174 175 178 180 182 184 187 190 193 196 198 200 202 202 202 201 199 197 194 191 189 188 186 186 187 189 191 195 198 203 207
196 197 199 202 201 199 198 200 203 204 204 205 206 208 210 211 211 212 214 217 221 224 225 222 215 209 208 211 215 214 209 204 200 196 191 185 177 174 175 178 179 181 183 186 189 191 193 196 197 197 198 198 198 197 195 194 191 188 187 187 186 187 189 193 196 199 203 207 211
192 190 194 199 197 196 197 199 201 203 205 206 206 207 208 210 212 214 216 219 222 223 222 218 212 207 207 210 210 206 199 193 187 182 179 177 175 175 177 179 181 183 185 189 191 192 193 195 195 195 195 195 195 194 193 192 190 189 188 189 190 191 194 197 201 205 208 212 214
188 183 188 196 195 194 195 198 199 201 203 203 203 203 204 208 212 216 219 221 222 221 218 215 210 206 206 206 202 194 185 178 175 174 174 175 175 176 178 180 182 185 188 191 192 194 194 194 194 194 193 194 194 194 193 192 192 191 192 193 195 196 199 203 207 211 214 216 217
184 179 184 192 191 190 191 194 195 196 197 198 199 199 202 207 213 217 219 221 219 216 213 210 207 205 202 199 190 181 174 170 170 172 173 175 176 177 178 180 183 186 189 191 193 195 195 194 194 194 194 194 195 195 194 195 195 196 197 198 199 201 204 208 213 216 218 219 219
183 179 183 187 184 183 184 187 189 191 192 195 197 200 203 207 209 213 216 217 215 211 208 205 202 200 195 187 178 171 168 167 169 171 173 175 176 177 178 181 184 187 189 190 192 194 195 194 194 194 195 196 196 196 197 198 199 200 201 203 204 206 209 214 218 220 221 220 219
184 181 181 180 178 178 179 181 185 188 191 194 198 202 206 208 209 212 215 215 212 207 203 200 197 192 185 176 169 165 164 165 167 170 173 174 175 177 179 182 185 188 188 188 190 192 193 193 193 194 195 197 198 199 201 202 204 205 206 207 208 209 213 218 221 222 221 219 217
187 182 178 174 174 176 177 179 184 188 191 193 198 203 209 214 216 217 217 214 209 203 198 194 190 183 174 167 163 161 161 163 167 171 173 174 175 177 179 182 185 186 186 187 189 191 192 192 193 194 196 199 201 203 205 206 208 209 209 210 211 213 215 219 221 221 220 216 213
190 182 175 169 171 174 177 181 185 187 189 193 198 205 214 222 224 222 217 211 204 197 192 188 180 171 164 161 158 157 160 165 170 173 174 175 176 178 180 182 184 184 185 187 189 191 191 192 193 196 198 201 204 206 208 209 210 211 211 213 215 216 218 220 220 218 215 210 207
184 177 170 167 172 178 182 184 185 186 190 195 202 212 223 227 226 220 213 205 198 192 186 177 167 161 158 156 155 156 162 169 173 174 175 176 177 178 180 181 182 183 185 187 189 191 192 194 196 198 201 204 207 209 210 211 211 211 212 214 216 219 220 219 217 213 207 202 200
180 176 174 174 180 185 187 187 186 187 193 202 211 221 226 226 221 214 205 198 192 185 174 164 159 156 154 153 154 158 165 171 174 175 175 176 177 179 180 181 182 183 185 188 190 192 194 197 199 202 204 206 208 210 210 210 210 209 210 213 216 218 217 213 209 204 199 197 200
181 181 179 179 184 190 192 190 189 191 199 210 217 222 221 217 211 204 197 189 182 171 161 156 154 153 152 152 156 162 168 172 174 174 175 177 178 179 180 182 183 185 187 189 191 194 197 200 202 204 206 207 208 208 208 207 206 207 209 212 215 214 210 204 200 197 198 203 212
185 185 183 182 187 192 195 193 193 198 207 213 215 215 213 208 200 191 183 174 164 156 153 152 151 150 150 153 159 165 169 171 173 174 175 177 178 179 181 183 185 187 189 192 194 197 199 202 203 204 205 205 205 204 204 204 205 207 210 211 210 207 201 196 194 196 206 219 228
189 190 188 187 190 194 197 197 200 206 212 215 213 208 202 194 182 170 161 154 150 149 149 148 147 147 149 155 162 166 168 169 171 172 174 175 177 178 180 183 185 188 191 194 196 197 199 199 200 200 200 199 198 198 200 202 206 207 207 205 201 197 195 195 198 209 224 233 234
190 193 193 192 194 197 200 204 209 214 217 215 207 196 182 166 154 148 145 144 144 144 144 143 142 145 150 156 162 165 166 167 168 170 171 172 174 176 178 180 183 186 190 192 194 194 194 194 194 195 195 194 192 193 197 201 202 201 198 195 193 194 198 205 215 225 230 229 223
190 193 195 195 197 200 205 213 217 218 215 207 192 171 153 144 140 139 140 140 140 139 139 139 141 145 151 156 159 161 163 165 166 167 168 169 171 172 174 176 179 182 185 187 188 188 188 188 189 190 190 189 189 190 192 193 191 189 189 190 194 201 208 216 221 223 221 215 208
190 193 194 193 195 201 211 216 215 210 201 184 163 147 140 138 138 138 138 138 137 137 138 141 145 148 152 154 156 159 161 162 163 164 165 167 168 169 171 173 175 177 179 181 181 181 182 183 186 188 188 186 185 186 186 184 184 186 190 196 203 209 213 216 217 217 215 210 207
189 190 190 188 193 202 210 209 202 191 174 157 145 140 138 138 138 138 137 137 138 140 144 147 150 151 153 154 156 158 159 161 162 163 165 166 167 168 169 171 173 175 177 178 178 178 179 181 183 185 185 185 185 187 189 190 192 195 199 204 208 211 213 214 214 215 216 216 219
187 187 187 188 196 202 201 191 177 162 150 143 140 139 139 139 139 139 140 141 144 148 151 153 154 155 155 156 157 159 160 161 163 165 168 170 171 171 171 171 173 176 179 180 180 180 180 181 183 184 185 187 190 193 196 198 200 202 205 207 210 211 212 212 214 216 221 228 236
188 187 189 194 197 193 180 164 150 143 140 139 139 140 141 141 142 143 145 148 151 154 156 157 157 157 158 159 160 161 163 165 167 171 175 180 180 177 174 173 175 178 180 180 180 180 181 182 183 184 186 190 195 197 197 198 200 201 204 206 207 207 208 211 215 222 231 242 250
193 193 195 194 187 173 158 146 140 138 138 139 140 142 143 145 147 149 151 154 156 158 159 159 159 159 160 162 164 167 169 171 172 176 179 179 174 172 171 173 176 178 177 174 172 173 176 178 180 182 186 190 194 196 195 197 198 200 202 203 202 203 207 214 223 231 238 244 249
198 196 192 183 169 155 145 140 139 140 140 141 143 145 147 149 152 154 156 158 159 160 160 160 160 161 162 164 168 170 172 172 173 173 170 160 155 157 162 168 173 175 171 165 163 165 169 173 176 178 181 183 186 192 199 204 205 206 206 204 201 202 209 220 230 237 243 249 254
189 185 177 165 152 144 140 141 142 144 145 146 148 151 154 155 157 158 160 161 161 162 162 163 163 164 164 165 166 166 166 166 166 164 160 153 150 151 156 162 167 168 166 163 162 165 169 173 177 181 184 187 191 197 204 210 211 210 210 210 210 214 220 227 235 243 251 257 262
171 166 158 149 144 142 143 146 149 150 152 154 156 158 160 161 162 163 164 166 166 166 167 167 168 169 169 168 165 162 160 161 161 160 158 156 155 155 156 159 161 163 164 166 169 174 180 185 190 193 195 196 197 200 206 212 212 209 208 210 213 217 224 232 239 247 253 257 258
150 149 147 145 146 148 151 154 155 156 157 159 159 159 160 162 164 166 168 169 169 169 170 170 171 173 175 174 170 166 163 162 163 163 163 163 163 162 161 161 162 164 168 174 181 188 192 195 197 197 197 197 200 206 213 217 215 210 206 206 206 211 218 228 235 242 245 247 247
137 142 146 149 152 155 157 158 158 157 157 157 156 155 155 157 160 163 166 167 167 168 168 170 171 174 176 175 173 170 167 166 167 168 169 170 171 171 170 169 169 172 179 185 190 192 194 194 194 195 198 203 209 215 219 217 211 206 202 199 201 207 216 224 230 233 234 233 230
136 144 149 152 154 155 155 155 155 154 154 153 152 150 149 150 152 154 157 160 162 163 165 165 166 167 168 168 169 169 170 170 171 172 174 177 180 183 184 183 183 184 186 188 188 187 187 189 192 198 203 209 212 212 209 202 197 193 192 195 203 211 217 221 222 222 220 215 208
143 147 149 151 152 151 151 151 151 151 152 151 150 149 148 147 148 150 152 155 158 160 161 161 161 160 160 161 165 168 171 173 175 177 180 184 190 195 197 195 191 189 187 185 184 184 187 191 195 199 202 201 199 195 189 184 184 187 193 199 206 210 212 212 210 206 201 193 186
144 146 148 149 149 150 150 150 151 152 153 153 152 152 152 152 152 152 153 156 158 159 161 161 161 160 160 162 165 168 172 175 179 182 185 189 194 198 199 195 190 187 185 183 185 188 191 192 192 192 190 186 183 182 183 184 188 192 196 200 202 203 202 199 194 188 182 176 171
137 141 145 147 149 150 152 153 154 155 156 157 158 159 160 160 159 159 159 161 162 163 165 167 168 168 169 170 171 171 172 174 179 183 186 187 188 189 188 187 186 186 186 186 186 186 185 183 181 180 178 176 179 182 185 189 191 193 194 193 192 190 188 184 179 174 169 166 165
129 133 137 140 145 150 154 158 159 161 163 164 167 168 169 169 169 168 168 169 170 171 173 175 176 177 177 178 177 175 172 173 175 178 181 181 179 177 177 179 183 186 185 182 178 176 173 172 172 171 172 175 179 183 185 186 187 186 184 182 180 177 173 171 169 165 163 162 164
126 129 133 136 141 148 154 158 161 164 167 170 172 175 176 176 175 174 173 175 178 179 178 178 177 176 175 176 176 174 172 170 169 171 173 174 174 172 171 172 174 174 172 169 167 167 166 166 168 169 172 175 177 178 178 177 177 176 174 171 168 166 163 161 160 161 162 164 166
Height
1412 1413 1414 1415 1417 1418 1419 1421 1423 1424 1426 1428 1429 1431 1432 1433 1435 1436 1437 1438 1438 1438 1438 1439 1440 1441 1443 1445 1446 1448 1449 1450 1451 1452 1453 1454 1455 1457 1458 1459 1461 1462 1463 1464 1466 1467 1468 1469 1470 1471 1472 1473 1473 1474 1475 1476 1477 1478 1479 1480 1481 1482 1483 1483 1484 1485 1486 1487 1488
1411 1412 1413 1415 1416 1417 1419 1420 1422 1423 1425 1426 1428 1430 1431 1433 1434 1435 1436 1437 1437 1437 1437 1438 1439 1441 1443 1444 1445 1447 1448 1449 1450 1451 1452 1453 1455 1456 1457 1459 1460 1461 1462 1463 1465 1466 1467 1468 1469 1470 1471 1472 1473 1473 1474 1475 1476 1477 1478 1479 1480 1480 1481 1483 1483 1484 1485 1486 1487
1410 1411 1413 1414 1415 1416 1418 1419 1421 1422 1424 1425 1427 1428 1430 1431 1433 1434 1435 1436 1436 1436 1437 1437 1438 1440 1442 1443 1444 1445 1447 1447 1448 1450 1451 1453 1454 1455 1456 1458 1459 1460 1461 1463 1464 1465 1466 1467 1468 1469 1470 1471 1472 1473 1473 1474 1475 1476 1477 1478 1478 1479 1480 1481 1482 1483 1484 1485 1486
1409 1411 1412 1413 1414 1415 1417 1418 1420 1421 1423 1424 1426 1428 1429 1430 1432 1433 1434 1435 1435 1436 1436 1437 1438 1440 1441 1442 1443 1444 1445 1446 1447 1449 1450 1452 1453 1454 1455 1456 1458 1459 1460 1462 1463 1465 1466 1466 1467 1468 1469 1470 1471 1472 1473 1473 1474 1475 1476 1477 1478 1478 1479 1480 1481 1482 1483 1484 1485
1409 1410 1411 1412 1413 1415 1416 1418 1419 1421 1422 1423 1425 1427 1428 1429 1431 1432 1433 1434 1435 1435 1435 1436 1438 1439 1440 1441 1442 1443 1444 1445 1446 1448 1449 1450 1452 1453 1454 1455 1457 1458 1460 1461 1463 1464 1465 1466 1466 1467 1468 1469 1470 1471 1472 1473 1473 1474 1475 1476 1477 1478 1478 1479 1480 1481 1482 1483 1484
1409 1410 1410 1412 1413 1414 1416 1418 1419 1420 1421 1422 1424 1426 1427 1428 1429 1431 1433 1433 1434 1434 1435 1436 1437 1438 1438 1440 1441 1442 1443 1444 1445 1447 1448 1449 1450 1451 1453 1454 1456 1458 1460 1461 1462 1463 1464 1465 1466 1466 1467 1468 1469 1470 1471 1472 1473 1473 1474 1475 1476 1477 1478 1478 1479 1480 1481 1482 1483
1409 1409 1410 1411 1413 1414 1416 1417 1418 1419 1421 1422 1423 1424 1426 1427 1428 1430 1431 1433 1433 1434 1434 1435 1436 1437 1438 1439 1440 1441 1442 1443 1444 1445 1446 1448 1449 1450 1452 1453 1456 1458 1459 1460 1462 1463 1463 1464 1465 1466 1466 1467 1468 1469 1470 1471 1472 1473 1473 1474 1475 1476 1477 1478 1478 1479 1481 1482 1483
1408 1409 1410 1411 1413 1414 1415 1417 1418 1419 1420 1421 1422 1424 1425 1427 1428 1429 1431 1432 1433 1433 1433 1433 1434 1436 1437 1438 1439 1440 1441 1442 1443 1444 1445 1446 1448 1449 1451 1453 1455 1457 1458 1460 1461 1462 1463 1463 1464 1465 1466 1467 1467 1468 1469 1470 1471 1472 1473 1473 1474 1475 1476 1477 1478 1479 1480 1481 1482
1408 1409 1410 1411 1412 1414 1415 1417 1418 1418 1419 1421 1422 1423 1424 1426 1428 1429 1430 1431 1432 1432 1432 1433 1434 1435 1436 1437 1438 1439 1440 1441 1442 1443 1444 1446 1447 1449 1451 1453 1455 1456 1458 1459 1460 1461 1462 1462 1463 1464 1465 1466 1467 1468 1468 1469 1470 1471 1472 1473 1474 1475 1476 1477 1478 1478 1479 1480 1481
1408 1409 1410 1411 1412 1413 1415 1416 1417 1418 1419 1420 1421 1423 1424 1426 1427 1428 1429 1429 1430 1430 1431 1432 1433 1434 1436 1437 1437 1438 1439 1440 1441 1442 1443 1445 1447 1448 1450 1453 1454 1456 1457 1458 1459 1460 1461 1462 1463 1463 1464 1465 1466 1467 1468 1469 1470 1471 1472 1473 1473 1474 1475 1476 1477 1478 1478 1479 1480
1407 1408 1409 1410 1412 1413 1414 1416 1417 1418 1418 1420 1421 1423 1424 1425 1426 1427 1427 1428 1428 1429 1430 1431 1432 1433 1435 1436 1437 1437 1438 1439 1440 1442 1443 1445 1447 1448 1450 1452 1453 1455 1456 1457 1458 1459 1460 1461 1462 1463 1464 1465 1466 1467 1468 1468 1469 1470 1471 1472 1473 1474 1475 1476 1476 1477 1478 1478 1479
1406 1407 1409 1410 1411 1413 1414 1415 1416 1417 1418 1419 1421 1422 1423 1424 1424 1425 1426 1427 1428 1428 1429 1430 1432 1433 1434 1435 1436 1437 1438 1439 1440 1442 1443 1445 1446 1448 1450 1452 1453 1454 1456 1457 1457 1458 1459 1460 1461 1462 1463 1464 1465 1466 1467 1468 1469 1470 1471 1472 1473 1473 1474 1475 1476 1476 1477 1477 1478
1405 1407 1409 1410 1411 1412 1413 1414 1415 1417 1418 1419 1420 1421 1422 1423 1423 1424 1425 1426 1427 1428 1429 1430 1431 1433 1434 1435 1435 1436 1438 1439 1440 1442 1443 1444 1446 1448 1449 1451 1453 1454 1455 1456 1457 1458 1458 1459 1461 1462 1463 1463 1464 1466 1467 1468 1468 1469 1470 1471 1472 1473 1474 1474 1475 1475 1476 1477 1478
1406 1407 1408 1409 1410 1411 1413 1414 1416 1416 1417 1418 1419 1420 1422 1422 1423 1423 1424 1425 1427 1428 1428 1429 1431 1432 1433 1434 1435 1436 1438 1439 1440 1442 1443 1444 1446 1447 1448 1450 1452 1453 1454 1455 1456 1457 1458 1459 1460 1461 1462 1463 1464 1465 1466 1467 1468 1469 1470 1471 1472 1472 1473 1474 1474 1475 1475 1476 1477
1405 1407 1408 1409 1410 1411 1412 1414 1415 1416 1417 1418 1419 1420 1421 1421 1422 1423 1424 1425 1426 1427 1428 1429 1430 1432 1433 1434 1435 1436 1437 1438 1440 1441 1443 1444 1445 1447 1448 1449 1451 1452 1453 1454 1455 1457 1458 1459 1460 1461 1462 1463 1464 1465 1466 1467 1468 1468 1469 1470 1471 1472 1473 1473 1473 1474 1475 1475 1476
1405 1407 1408 1409 1410 1411 1412 1413 1414 1416 1417 1418 1418 1419 1420 1421 1421 1422 1423 1424 1425 1427 1428 1429 1430 1432 1433 1434 1435 1436 1437 1438 1440 1441 1442 1443 1445 1446 1447 1449 1450 1451 1453 1453 1455 1456 1457 1458 1459 1461 1462 1463 1464 1465 1466 1467 1467 1468 1469 1470 1470 1471 1472 1472 1473 1473 1474 1475 1475
1404 1406 1407 1408 1410 1411 1412 1413 1414 1415 1416 1417 1418 1418 1419 1420 1421 1422 1423 1424 1425 1426 1428 1429 1430 1432 1433 1433 1434 1435 1437 1438 1439 1441 1442 1443 1444 1446 1447 1448 1449 1451 1452 1453 1454 1456 1457 1458 1459 1460 1461 1462 1463 1464 1465 1466 1467 1468 1468 1469 1469 1470 1471 1471 1472 1473 1473 1474 1474
1405 1405 1406 1408 1409 1411 1412 1414 1414 1415 1415 1416 1417 1418 1418 1419 1420 1421 1422 1423 1424 1426 1427 1429 1430 1432 1432 1433 1434 1435 1436 1438 1439 1441 1442 1443 1444 1445 1447 1448 1449 1450 1452 1453 1454 1455 1456 1458 1458 1460 1461 1462 1463 1463 1464 1465 1466 1467 1468 1468 1469 1469 1470 1470 1471 1472 1473 1473 1474
1406 1406 1407 1408 1410 1411 1412 1413 1414 1414 1415 1416 1417 1418 1418 1419 1420 1421 1422 1423 1424 1426 1427 1429 1430 1431 1432 1433 1433 1435 1437 1438 1440 1441 1442 1443 1444 1445 1446 1448 1449 1450 1451 1453 1454 1455 1456 1457 1458 1459 1460 1461 1462 1463 1464 1465 1465 1466 1467 1468 1468 1468 1469 1470 1470 1471 1472 1472 1473
1407 1408 1408 1409 1410 1412 1412 1413 1413 1414 1415 1416 1416 1417 1418 1419 1420 1420 1422 1423 1425 1426 1428 1429 1430 1431 1432 1433 1433 1435 1437 1439 1440 1441 1442 1443 1444 1445 1446 1448 1449 1450 1451 1452 1453 1455 1456 1457 1458 1458 1459 1460 1461 1462 1463 1464 1465 1465 1466 1467 1467 1468 1468 1469 1469 1470 1471 1472 1473
1407 1408 1409 1410 1411 1412 1412 1413 1413 1414 1415 1416 1417 1418 1418 1419 1419 1420 1422 1423 1425 1427 1428 1429 1430 1431 1431 1433 1434 1436 1438 1439 1440 1441 1442 1443 1444 1445 1446 1448 1448 1450 1451 1452 1453 1454 1455 1456 1457 1458 1459 1460 1461 1462 1463 1463 1464 1465 1465 1466 1466 1467 1468 1468 1469 1470 1471 1472 1472
1407 1408 1409 1410 1411 1412 1412 1413 1413 1414 1415 1416 1417 1418 1418 1419 1420 1421 1422 1424 1426 1427 1428 1429 1430 1431 1432 1433 1435 1437 1438 1439 1440 1441 1442 1443 1444 1445 1446 1448 1448 1450 1451 1452 1453 1454 1455 1456 1457 1457 1458 1459 1460 1461 1462 1463 1463 1464 1464 1465 1465 1466 1467 1468 1469 1469 1470 1471 1471
1407 1408 1409 1410 1411 1411 1412 1412 1413 1414 1415 1416 1417 1418 1418 1419 1420 1422 1423 1424 1426 1427 1428 1429 1430 1431 1433 1434 1436 1437 1438 1439 1440 1441 1442 1443 1444 1445 1446 1448 1448 1449 1451 1452 1452 1453 1454 1455 1456 1457 1458 1459 1460 1461 1461 1462 1462 1463 1463 1464 1465 1466 1467 1468 1468 1469 1469 1470 1470
1407 1408 1409 1410 1410 1411 1411 1412 1413 1414 1415 1416 1417 1418 1419 1420 1421 1422 1423 1425 1426 1428 1428 1429 1431 1432 1434 1435 1437 1438 1439 1440 1441 1442 1443 1443 1444 1445 1446 1447 1448 1449 1450 1451 1452 1453 1453 1454 1455 1456 1457 1458 1459 1460 1461 1461 1462 1463 1463 1464 1465 1466 1467 1467 1468 1468 1469 1469 1469
1408 1408 1409 1409 1410 1411 1411 1412 1413 1414 1415 1416 1417 1418 1419 1420 1421 1423 1424 1425 1427 1428 1429 1430 1431 1433 1435 1436 1438 1438 1439 1440 1441 1442 1442 1443 1444 1445 1446 1447 1448 1449 1450 1451 1452 1453 1453 1454 1455 1456 1457 1458 1458 1459 1460 1460 1461 1463 1463 1464 1465 1466 1466 1467 1467 1468 1468 1468 1468
1408 1408 1409 1409 1410 1411 1412 1413 1413 1414 1415 1417 1418 1419 1420 1421 1422 1423 1425 1426 1427 1428 1429 1431 1433 1434 1435 1437 1438 1438 1439 1440 1441 1442 1442 1443 1444 1445 1446 1447 1448 1449 1450 1451 1452 1453 1453 1454 1455 1456 1456 1457 1458 1458 1459 1460 1461 1462 1463 1464 1465 1465 1466 1466 1466 1467 1467 1467 1468
1407 1408 1409 1409 1411 1412 1413 1413 1414 1415 1416 1417 1418 1419 1421 1422 1423 1424 1425 1426 1428 1429 1431 1432 1433 1434 1436 1437 1438 1438 1439 1440 1441 1442 1443 1443 1444 1445 1446 1447 1448 1449 1450 1451 1452 1452 1453 1454 1455 1456 1456 1457 1458 1458 1459 1460 1461 1462 1463 1463 1464 1464 1465 1465 1465 1466 1466 1467 1467
1407 1408 1409 1410 1412 1413 1413 1414 1414 1415 1417 1418 1419 1420 1422 1423 1424 1425 1426 1427 1428 1430 1431 1433 1433 1435 1436 1437 1438 1438 1439 1440 1441 1442 1443 1444 1444 1445 1446 1447 1448 1449 1450 1451 1452 1452 1453 1454 1455 1456 1457 1457 1458 1459 1460 1460 1461 1462 1462 1463 1463 1463 1464 1464 1465 1465 1465 1466 1466
1407 1408 1410 1411 1412 1413 1414 1414 1415 1416 1418 1419 1420 1421 1422 1423 1424 1426 1427 1428 1429 1430 1432 1433 1433 1435 1436 1437 1438 1439 1440 1441 1441 1442 1443 1444 1445 1445 1446 1447 1448 1449 1450 1450 1451 1452 1453 1454 1455 1456 1457 1457 1458 1459 1459 1460 1461 1461 1462 1462 1463 1463 1463 1463 1464 1464 1465 1465 1465
1408 1409 1410 1412 1413 1413 1415 1416 1417 1418 1419 1420 1421 1422 1423 1424 1425 1426 1428 1428 1430 1431 1432 1433 1434 1435 1436 1437 1438 1439 1440 1441 1442 1443 1443 1443 1444 1445 1446 1447 1448 1449 1450 1450 1451 1452 1453 1454 1455 1456 1457 1457 1458 1458 1459 1459 1460 1461 1461 1461 1462 1462 1462 1463 1463 1464 1464 1465 1465
1408 1410 1411 1412 1413 1414 1416 1417 1418 1419 1420 1421 1422 1423 1424 1425 1426 1427 1428 1429 1430 1431 1432 1433 1434 1436 1437 1438 1438 1439 1440 1441 1442 1443 1443 1443 1444 1445 1446 1447 1448 1449 1450 1451 1452 1453 1453 1454 1455 1456 1457 1457 1458 1458 1458 1459 1459 1460 1460 1461 1461 1461 1462 1462 1463 1463 1464 1464 1464
1409 1410 1411 1413 1414 1416 1417 1418 1419 1421 1421 1422 1423 1424 1425 1426 1427 1428 1429 1430 1431 1432 1433 1434 1435 1436 1437 1438 1439 1440 1440 1441 1442 1443 1443 1444 1445 1445 1446 1447 1448 1449 1450 1451 1452 1453 1453 1454 1455 1455 1456 1457 1457 1458 1458 1458 1459 1459 1460 1460 1461 1461 1462 1462 1463 1463 1463 1464 1464
1409 1410 1412 1414 1415 1417 1418 1419 1420 1421 1422 1423 1424 1425 1426 1426 1427 1428 1429 1431 1432 1433 1433 1435 1436 1437 1438 1438 1439 1440 1441 1442 1442 1443 1443 1444 1445 1446 1447 1448 1448 1449 1450 1451 1452 1453 1453 1454 1454 1455 1456 1456 1457 1457 1458 1458 1458 1459 1459 1460 1460 1461 1461 1462 1462 1463 1463 1463 1463
1410 1412 1413 1415 1417 1418 1419 1420 1421 1422 1423 1423 1424 1425 1426 1427 1428 1429 1430 1431 1432 1433 1434 1435 1436 1437 1438 1439 1440 1440 1441 1442 1443 1443 1444 1445 1445 1446 1447 1448 1448 1449 1450 1451 1452 1452 1453 1453 1454 1454 1455 1456 1456 1457 1457 1458 1458 1458 1459 1459 1460 1461 1461 1461 1462 1462 1462 1462 1462
1413 1414 1415 1416 1418 1418 1419 1420 1421 1422 1423 1423 1424 1425 1426 1427 1428 1429 1430 1431 1432 1433 1434 1436 1437 1438 1438 1439 1440 1441 1441 1442 1443 1443 1444 1445 1445 1446 1447 1448 1448 1449 1450 1451 1451 1452 1452 1453 1453 1454 1454 1455 1456 1456 1457 1457 1458 1458 1458 1459 1460 1460 1460 1461 1461 1461 1461 1462 1462
1416 1416 1417 1418 1418 1419 1420 1420 1421 1422 1423 1424 1425 1426 1427 1428 1429 1430 1431 1432 1433 1434 1435 1436 1437 1438 1438 1439 1440 1441 1442 1442 1443 1443 1444 1445 1446 1446 1447 1448 1448 1449 1450 1450 1451 1451 1452 1453 1453 1454 1454 1455 1455 1456 1456 1457 1457 1458 1458 1459 1459 1459 1460 1460 1460 1461 1461 1461 1461
1418 1418 1419 1419 1420 1421 1421 1422 1423 1423 1424 1425 1426 1427 1428 1429 1430 1431 1432 1433 1433 1434 1435 1436 1437 1438 1438 1439 1440 1441 1442 1442 1443 1443 1444 1445 1446 1446 1447 1448 1448 1449 1449 1450 1451 1451 1452 1453 1453 1453 1454 1454 1455 1455 1456 1456 1457 1457 1458 1458 1458 1459 1459 1459 1460 1460 1460 1460 1461
1419 1420 1420 1421 1422 1422 1423 1423 1424 1425 1426 1426 1427 1428 1429 1430 1431 1432 1433 1433 1434 1435 1436 1437 1437 1438 1439 1439 1440 1441 1442 1443 1443 1444 1444 1445 1446 1446 1447 1448 1448 1448 1449 1450 1450 1451 1452 1452 1453 1453 1453 1454 1454 1455 1455 1456 1456 1457 1457 1458 1458 1458 1459 1459 1459 1459 1460 1460 1460
1420 1420 1421 1422 1423 1423 1424 1425 1425 1426 1427 1428 1428 1429 1430 1431 1431 1432 1433 1434 1435 1436 1436 1437 1438 1438 1439 1440 1440 1441 1442 1443 1443 1444 1444 1445 1446 1446 1447 1448 1448 1448 1449 1450 1450 1451 1452 1452 1453 1453 1453 1454 1454 1455 1455 1456 1456 1457 1457 1457 1458 1458 1458 1458 1459 1459 1459 1459 1460
1421 1421 1422 1422 1423 1424 1425 1426 1426 1427 1428 1428 1429 1430 1431 1431 1432 1433 1434 1434 1435 1436 1437 1437 1438 1438 1439 1440 1441 1441 1442 1443 1443 1444 1444 1445 1446 1446 1447 1448 1448 1449 1449 1450 1450 1451 1451 1452 1452 1453 1453 1453 1454 1454 1455 1455 1456 1456 1457 1457 1457 1458 1458 1458 1458 1459 1459 1459 1459
1422 1422 1423 1423 1424 1425 1425 1426 1427 1428 1428 1429 1430 1431 1431 1432 1433 1433 1434 1435 1436 1437 1437 1438 1438 1439 1440 1440 1441 1441 1442 1443 1443 1444 1445 1445 1446 1446 1447 1448 1448 1449 1449 1450 1450 1451 1451 1452 1452 1453 1453 1453 1454 1454 1455 1455 1455 1456 1456 1457 1457 1457 1458 1458 1458 1458 1459 1459 1459